Location: Vancouver
(49.2500°N, 123.1330°W)
Time: 00:02:30
(UTC-07:00)

Cosmos 676 Rocket - Visible Passes

Search period start: 03 September 2014 00:00
Search period end: 13 September 2014 00:00
Orbit: 757 x 785 km, 74.0° (Epoch: 02 September)

Date Brightness Start Highest point End Pass type
(mag) Time Alt. Az. Time Alt. Az. Time Alt. Az.
03 Sep 6.2 00:00:00 16° W 00:02:26 22° NW 00:06:26 10° N visible
03 Sep 4.2 21:39:57 17° S 21:43:36 45° ESE 21:48:32 10° NE visible
03 Sep 5.7 23:21:18 10° WSW 23:25:54 31° NW 23:30:30 10° N visible
04 Sep 4.8 21:03:09 10° SSE 21:07:33 29° E 21:11:57 10° NE visible
04 Sep 4.9 22:44:28 10° SW 22:49:27 46° WNW 22:54:28 10° NNE visible
05 Sep 7.0 00:31:48 10° NW 00:33:00 11° NW 00:34:11 10° NNW visible
05 Sep 6.8 05:44:52 10° N 05:48:25 18° NE 05:51:57 10° E visible
05 Sep 5.3 20:28:09 10° SE 20:31:35 18° E 20:35:01 10° NE visible
05 Sep 4.2 22:07:56 10° SSW 22:13:06 71° WNW 22:18:18 10° NNE visible
05 Sep 6.8 23:53:17 10° WNW 23:56:14 15° NW 23:59:12 10° N visible
06 Sep 7.1 05:09:21 10° NNE 05:11:43 13° NE 05:14:04 10° ENE visible
06 Sep 3.9 21:31:41 10° SSW 21:36:51 75° ESE 21:42:03 10° NNE visible
06 Sep 6.4 23:15:40 10° W 23:19:34 21° NW 23:23:30 10° N visible
07 Sep 4.2 20:55:46 10° S 21:00:42 47° ESE 21:05:39 10° NNE visible
07 Sep 5.8 22:38:28 10° WSW 22:43:01 30° NW 22:47:35 10° N visible
08 Sep 6.4 05:37:46 10° N 05:42:09 26° NE 05:46:30 10° ESE visible
08 Sep 4.7 20:20:12 10° SSE 20:24:38 30° E 20:29:05 10° NE visible
08 Sep 5.1 22:01:37 10° SW 22:06:34 45° WNW 22:11:33 10° NNE visible
08 Sep 7.2 23:49:13 10° NW 23:50:08 10° NW 23:51:04 10° NNW visible
09 Sep 6.9 05:01:56 10° N 05:05:33 19° NE 05:09:10 10° E visible
09 Sep 4.3 21:25:03 10° SSW 21:30:13 69° WNW 21:35:24 10° NNE visible
09 Sep 6.9 23:10:31 10° WNW 23:13:22 15° NW 23:16:14 10° N visible
10 Sep 7.1 04:26:22 10° NNE 04:28:51 13° NE 04:31:20 10° ENE visible
10 Sep 4.7 06:06:58 10° NNW 06:12:08 60° ENE 06:17:18 10° SE visible
10 Sep 3.9 20:48:47 10° SSW 20:53:57 77° ESE 20:59:09 10° NNE visible
10 Sep 6.5 22:32:51 10° W 22:36:42 21° NW 22:40:34 10° N visible
11 Sep 5.6 05:30:51 10° NNW 05:35:45 39° ENE 05:40:39 10° SE visible
11 Sep 4.2 20:12:50 10° S 20:17:47 48° ESE 20:22:46 10° NNE visible
11 Sep 6.0 21:55:38 10° WSW 22:00:08 29° NW 22:04:40 10° N visible
12 Sep 6.2 04:54:51 10° N 04:59:16 27° NE 05:03:41 10° ESE visible
12 Sep 5.2 21:18:45 10° SW 21:23:41 43° WNW 21:28:38 10° NNE visible
12 Sep 7.3 23:06:45 10° NW 23:07:17 10° NW 23:07:49 10° NNW visible
